(2011 CL50) |
Classification: Aten [NEO] SPK-ID: 3557536 |
[ hide orbit diagram ]
For accurate long-term ephemerides, please instead use our Horizons system.This orbit viewer was implemented using two-body methods, and hence should not be used for determining accurate long-term trajectories (over several years or decades) or planetary encounter circumstances.
Orbital Elements at Epoch 2459200.5 (2020-Dec-17.0) TDB
Reference: JPL 24 (heliocentric ecliptic J2000)
Element | Value | Uncertainty (1-sigma) | Units |
e | .1459654425742445 | 4.4008e-08 | |
a | .8849179501697163 | 2.0286e-09 | au |
q | .7557505099313004 | 3.8264e-08 | au |
i | .1854206398826393 | 4.7668e-07 | deg |
node | 9.115842810022306 | 0.00095026 | deg |
peri | 296.1065059837813 | 0.00094762 | deg |
M | 129.9863557285085 | 3.4849e-05 | deg |
tp | 2459090.713686747852 (2020-Aug-29.21368675) | 2.9148e-05 | TDB |
period | 304.0555491325698 0.83 | 1.0455e-06 2.862e-09 | d yr |
n | 1.183994178126439 | 4.0714e-09 | deg/d |
Q | 1.014085390408132 | 2.3247e-09 | au |
|
Additional Model Parameters
Parameter | Value | Uncertainty (1-sigma) |
A2 [EST] | 4.36257230382443E-12 | 3.548E-13 |
ALN [SET] | 1. | n/a |
NK [SET] | 0. | n/a |
NM [SET] | 2. | n/a |
R0 [SET] | 1. | n/a |
|
| | Orbit Determination Parameters
Additional Information
|
[ show covariance matrix ]
Physical Parameter Table
Parameter |
Symbol |
Value |
Units |
Sigma |
Reference |
Notes |
absolute magnitude |
H |
27.34 |
|
n/a |
E2021B69 |
|
|
[ show close-approach data ]
|